When you browse on this site, cookies collect data to enhance your experience and personalize the content and advertising you see.
Visit our Privacy Policy to learn more. By continuing to use the site, you agree to this use of cookies and data.
  • En España
  • Lista de países
  • Para 7 días
  • Temperatura del agua
  • Mapa Satelital
  • El tiempo en el mapa
  • Informadores
  • user-avatar
    Iniciar sesión

    Tiempo cada hora Neuquén

    Hoy, 20 Enero, Domingo

    Tiempo Temperatura Precipitaciones Viento Presión Humedad
    00:00 +30°C° 0 mm 7 mps 729 mmHg 28%
    01:00 +28°C° 0 mm 12 mps 729 mmHg 34%
    02:00 +27°C° 0 mm 9 mps 729 mmHg 36%
    03:00 +27°C° 0 mm 7 mps 729 mmHg 38%
    04:00 +26°C° 0 mm 5 mps 729 mmHg 40%
    05:00 +27°C° 0 mm 4 mps 729 mmHg 38%
    06:00 +28°C° 0 mm 4 mps 729 mmHg 35%
    07:00 +28°C° 0 mm 4 mps 729 mmHg 35%
    08:00 +30°C° 0 mm 4 mps 729 mmHg 29%
    09:00 +33°C° 0 mm 4 mps 729 mmHg 23%
    10:00 +35°C° 0 mm 4 mps 728 mmHg 17%
    11:00 +36°C° 0 mm 5 mps 728 mmHg 16%
    12:00 +39°C° 0 mm 6 mps 727 mmHg 14%
    13:00 +40°C° 0 mm 7 mps 727 mmHg 12%
    14:00 +40°C° 0 mm 8 mps 727 mmHg 10%
    15:00 +42°C° 0 mm 9 mps 727 mmHg 8%
    16:00 +42°C° 0 mm 11 mps 727 mmHg 6%
    17:00 +39°C° 0 mm 11 mps 727 mmHg 8%
    18:00 +37°C° 0 mm 11 mps 727 mmHg 11%
    19:00 +34°C° 0 mm 12 mps 728 mmHg 13%
    20:00 +32°C° 0 mm 12 mps 729 mmHg 17%
    21:00 +29°C° 0 mm 11 mps 729 mmHg 20%
    22:00 +27°C° 0 mm 11 mps 730 mmHg 24%
    23:00 +26°C° 0 mm 11 mps 730 mmHg 26%

    Mañana, 21 Enero, Lunes

    Tiempo Temperatura Precipitaciones Viento Presión Humedad
    00:00 +24°C° 0 mm 10 mps 730 mmHg 28%
    01:00 +23°C° 0 mm 9 mps 731 mmHg 31%
    02:00 +22°C° 0 mm 9 mps 731 mmHg 32%
    03:00 +22°C° 0 mm 8 mps 731 mmHg 34%
    04:00 +21°C° 0 mm 7 mps 731 mmHg 36%
    05:00 +22°C° 0 mm 8 mps 732 mmHg 34%
    06:00 +23°C° 0 mm 8 mps 732 mmHg 31%
    07:00 +23°C° 0 mm 8 mps 732 mmHg 29%
    08:00 +26°C° 0 mm 7 mps 732 mmHg 25%
    09:00 +28°C° 0 mm 7 mps 732 mmHg 20%
    10:00 +29°C° 0 mm 6 mps 732 mmHg 16%
    11:00 +32°C° 0 mm 6 mps 731 mmHg 14%
    12:00 +33°C° 0 mm 6 mps 730 mmHg 13%
    13:00 +35°C° 0 mm 6 mps 730 mmHg 11%
    14:00 +36°C° 0 mm 6 mps 729 mmHg 10%
    15:00 +38°C° 0 mm 6 mps 729 mmHg 9%
    16:00 +39°C° 0 mm 6 mps 728 mmHg 8%
    17:00 +38°C° 0 mm 7 mps 728 mmHg 8%
    18:00 +37°C° 0 mm 8 mps 728 mmHg 8%
    19:00 +35°C° 0 mm 9 mps 728 mmHg 7%
    20:00 +33°C° 0 mm 9 mps 729 mmHg 11%
    21:00 +31°C° 0 mm 9 mps 729 mmHg 14%
    22:00 +28°C° 0 mm 9 mps 730 mmHg 18%
    23:00 +27°C° 0 mm 9 mps 730 mmHg 20%

    Pasado mañana, 22 Enero, Martes

    Tiempo Temperatura Precipitaciones Viento Presión Humedad
    00:00 +24°C° 0 mm 9 mps 730 mmHg 22%
    01:00 +23°C° 0 mm 9 mps 730 mmHg 24%
    02:00 +22°C° 0 mm 9 mps 730 mmHg 24%
    03:00 +22°C° 0 mm 10 mps 730 mmHg 24%
    04:00 +21°C° 0 mm 10 mps 730 mmHg 24%
    05:00 +22°C° 0 mm 10 mps 731 mmHg 22%
    06:00 +22°C° 0 mm 11 mps 731 mmHg 21%
    07:00 +23°C° 0 mm 11 mps 732 mmHg 19%
    08:00 +26°C° 0 mm 11 mps 732 mmHg 19%
    09:00 +27°C° 0 mm 10 mps 732 mmHg 19%
    10:00 +28°C° 0 mm 10 mps 732 mmHg 19%
    11:00 +29°C° 0 mm 10 mps 732 mmHg 18%
    12:00 +31°C° 0 mm 10 mps 732 mmHg 16%
    13:00 +32°C° 0 mm 10 mps 731 mmHg 14%
    14:00 +33°C° 0 mm 9 mps 731 mmHg 14%
    15:00 +33°C° 0 mm 9 mps 730 mmHg 13%
    16:00 +34°C° 0 mm 8 mps 730 mmHg 12%
    17:00 +33°C° 0 mm 7 mps 730 mmHg 12%
    18:00 +32°C° 0 mm 6 mps 731 mmHg 12%
    19:00 +30°C° 0 mm 5 mps 731 mmHg 12%
    20:00 +29°C° 0 mm 5 mps 732 mmHg 13%
    21:00 +28°C° 0 mm 5 mps 732 mmHg 14%
    22:00 +27°C° 0 mm 5 mps 733 mmHg 15%
    23:00 +27°C° 0 mm 5 mps 733 mmHg 16%

    23 Enero, Miércoles

    Tiempo Temperatura Precipitaciones Viento Presión Humedad
    00:00 +26°C° 0 mm 6 mps 733 mmHg 17%
    01:00 +24°C° 0 mm 6 mps 733 mmHg 18%
    02:00 +23°C° 0 mm 6 mps 733 mmHg 19%
    03:00 +22°C° 0 mm 5 mps 733 mmHg 20%
    04:00 +21°C° 0 mm 4 mps 734 mmHg 22%
    05:00 +22°C° 0 mm 4 mps 734 mmHg 23%
    06:00 +23°C° 0 mm 4 mps 735 mmHg 25%
    07:00 +25°C° 0 mm 4 mps 735 mmHg 26%
    08:00 +26°C° 0 mm 4 mps 735 mmHg 23%
    09:00 +28°C° 0 mm 3 mps 735 mmHg 20%
    10:00 +30°C° 0 mm 3 mps 735 mmHg 17%
    11:00 +31°C° 0 mm 3 mps 734 mmHg 15%
    12:00 +34°C° 0 mm 3 mps 734 mmHg 13%
    13:00 +35°C° 0 mm 3 mps 733 mmHg 11%
    14:00 +36°C° 0 mm 3 mps 732 mmHg 10%
    15:00 +37°C° 0 mm 3 mps 732 mmHg 9%
    16:00 +38°C° 0 mm 4 mps 731 mmHg 9%
    17:00 +37°C° 0 mm 4 mps 731 mmHg 10%
    18:00 +36°C° 0 mm 4 mps 730 mmHg 11%
    19:00 +35°C° 0 mm 3 mps 730 mmHg 12%
    20:00 +35°C° 0 mm 4 mps 730 mmHg 15%
    21:00 +34°C° 0 mm 4 mps 730 mmHg 17%
    22:00 +34°C° 0 mm 5 mps 730 mmHg 20%
    23:00 +33°C° 0 mm 5 mps 729 mmHg 26%

    24 Enero, Jueves

    Tiempo Temperatura Precipitaciones Viento Presión Humedad
    00:00 +32°C° 0 mm 6 mps 729 mmHg 33%
    01:00 +32°C° 0 mm 6 mps 728 mmHg 39%
    02:00 +32°C° 0 mm 7 mps 728 mmHg 46%
    03:00 +30°C° 0 mm 7 mps 728 mmHg 52%
    04:00 +30°C° 0 mm 7 mps 727 mmHg 59%
    05:00 +32°C° 0 mm 8 mps 727 mmHg 57%
    06:00 +33°C° 0 mm 9 mps 727 mmHg 54%
    07:00 +33°C° 0 mm 9 mps 728 mmHg 52%
    08:00 +35°C° 0 mm 8 mps 727 mmHg 44%
    09:00 +38°C° 0 mm 8 mps 727 mmHg 36%
    10:00 +39°C° 0 mm 7 mps 727 mmHg 28%
    11:00 +41°C° 0 mm 7 mps 726 mmHg 21%
    12:00 +43°C° 0 mm 7 mps 726 mmHg 15%
    13:00 +44°C° 0 mm 7 mps 725 mmHg 8%
    14:00 +44°C° 0 mm 7 mps 725 mmHg 6%
    15:00 +44°C° 0 mm 8 mps 724 mmHg 5%
    16:00 +44°C° 0 mm 8 mps 724 mmHg 4%
    17:00 +42°C° 0 mm 10 mps 724 mmHg 5%
    18:00 +39°C° 0 mm 11 mps 725 mmHg 7%
    19:00 +37°C° 0 mm 13 mps 725 mmHg 9%
    20:00 +34°C° 0 mm 13 mps 726 mmHg 11%
    21:00 +32°C° 0 mm 13 mps 726 mmHg 13%
    22:00 +31°C° 0 mm 12 mps 727 mmHg 15%
    23:00 +28°C° 0 mm 12 mps 727 mmHg 17%

    25 Enero, Viernes

    Tiempo Temperatura Precipitaciones Viento Presión Humedad
    00:00 +26°C° 0 mm 12 mps 728 mmHg 18%
    01:00 +24°C° 0 mm 13 mps 728 mmHg 19%
    02:00 +23°C° 0 mm 12 mps 728 mmHg 25%
    03:00 +22°C° 0 mm 12 mps 729 mmHg 30%
    04:00 +22°C° 0 mm 11 mps 729 mmHg 36%
    05:00 +22°C° 0 mm 11 mps 730 mmHg 35%
    06:00 +23°C° 0 mm 11 mps 731 mmHg 34%
    07:00 +23°C° 0 mm 11 mps 731 mmHg 34%
    08:00 +24°C° 0 mm 11 mps 732 mmHg 28%
    09:00 +26°C° 0 mm 11 mps 732 mmHg 23%
    10:00 +27°C° 0 mm 10 mps 732 mmHg 17%
    11:00 +28°C° 0 mm 10 mps 732 mmHg 14%
    12:00 +31°C° 0 mm 9 mps 732 mmHg 11%
    13:00 +32°C° 0 mm 8 mps 732 mmHg 8%
    14:00 +32°C° 0 mm 8 mps 732 mmHg 8%
    15:00 +33°C° 0 mm 8 mps 732 mmHg 7%
    16:00 +33°C° 0 mm 8 mps 732 mmHg 7%
    17:00 +32°C° 0 mm 6 mps 732 mmHg 7%
    18:00 +30°C° 0 mm 5 mps 732 mmHg 8%
    19:00 +29°C° 0 mm 3 mps 733 mmHg 8%
    20:00 +28°C° 0 mm 4 mps 733 mmHg 9%
    21:00 +27°C° 0 mm 4 mps 733 mmHg 10%
    22:00 +27°C° 0 mm 5 mps 733 mmHg 11%
    23:00 +26°C° 0 mm 5 mps 733 mmHg 12%
    Mostrar más